Weather History for McCook, NE

Change the Weather History Date:

Tuesday, May 7, 2013

  Actual Average Record
Temperature  
Mean Temperature 61 °F 57 °F  
Max Temperature 70 °F 71 °F 99 °F (1916)
Min Temperature 51 °F 43 °F 30 °F (1917)
Degree Days  
Heating Degree Days 4    
Growing Degree Days 10 (Base 50)    
Moisture  
Dew Point 50 °F    
Average Humidity 74    
Maximum Humidity 93    
Minimum Humidity 54    
Precipitation  
Precipitation 0.08 in 0.09 in 1.09 in (1969)
Month to date precipitation 0.17 0.67  
Year to date precipitation 3.74 5.47  
Sea Level Pressure  
Sea Level Pressure 29.94 in    
Wind  
Wind Speed 11 mph (ESE)    
Max Wind Speed 21 mph    
Max Gust Speed 28 mph    
Visibility 9 miles    
Events Rain    
T = Trace of Precipitation, MM = Missing Value Source: NWS Daily Summary

Daily Weather History Graph

Daily Weather History Graph

Search for Another Location

Airport:

Trip Planner

Search our weather history database for the weather conditions in past years. The results will help you decide how hot, cold, wet, or windy it might be!

Date:

Astronomy

May. 07, 2013 Rise Set
Actual Time 6:34 AM CDT 8:43 PM CDT
Civil Twilight 6:04 AM CDT 9:13 PM CDT
Nautical Twilight 5:27 AM CDT 9:50 PM CDT
Astronomical Twilight 4:47 AM CDT 10:31 PM CDT
Moon 5:09 AM CDT (5/7) 6:45 PM CDT (5/7)
Length of Visible Light 15h 09m
Length of Day
14h 09m
Waning Crescent, 5% of the Moon is Illuminated
May 7
Waning Crescent
May 9
New
May 17
First Quarter
May 24
Full
May 31
Last Quarter

Hourly Weather History & Observations

Time (CDT) Temp. Dew Point Humidity Pressure Visibility Wind Dir Wind Speed Gust Speed Precip Events Conditions
12:53 AM 52.0 °F 36.0 °F 54% 30.01 in 10.0 mi SE 10.4 mph - N/A   Clear
1:53 AM 52.0 °F 37.0 °F 57% 30.01 in 10.0 mi SE 8.1 mph - N/A   Clear
2:53 AM 54.0 °F 41.0 °F 62% 29.99 in 10.0 mi SE 9.2 mph - N/A   Mostly Cloudy
3:53 AM 55.0 °F 44.1 °F 67% 29.97 in 10.0 mi ESE 8.1 mph - N/A   Overcast
4:53 AM 54.0 °F 46.0 °F 75% 29.97 in 10.0 mi ESE 6.9 mph - 0.00 in   Overcast
5:53 AM 53.1 °F 48.0 °F 83% 29.97 in 9.0 mi East 5.8 mph - 0.00 in Rain Light Rain
6:53 AM 53.1 °F 48.9 °F 86% 29.97 in 8.0 mi SE 11.5 mph 17.3 mph 0.05 in Rain Light Rain
7:53 AM 53.1 °F 50.0 °F 89% 29.98 in 9.0 mi ESE 6.9 mph - 0.01 in   Overcast
8:53 AM 54.0 °F 51.1 °F 90% 29.99 in 10.0 mi East 6.9 mph - 0.00 in   Overcast
9:53 AM 54.0 °F 51.1 °F 90% 29.99 in 10.0 mi East 9.2 mph - N/A   Overcast
10:53 AM 57.0 °F 53.1 °F 87% 29.98 in 7.0 mi ESE 10.4 mph - 0.01 in Rain Light Rain
11:03 AM 55.4 °F 51.8 °F 88% 30.00 in 3.0 mi SE 11.5 mph - 0.01 in Rain Light Rain
11:53 AM 59.0 °F 53.1 °F 81% 29.98 in 9.0 mi SE 15.0 mph - 0.01 in   Overcast
12:53 PM 60.1 °F 53.1 °F 78% 29.97 in 10.0 mi SE 15.0 mph - N/A   Overcast
1:50 PM 60.8 °F 51.8 °F 72% 29.96 in 10.0 mi SE 16.1 mph 24.2 mph N/A   Overcast
1:53 PM 61.0 °F 51.1 °F 70% 29.94 in 10.0 mi SSE 13.8 mph - N/A   Overcast
2:08 PM 62.6 °F 53.6 °F 72% 29.95 in 10.0 mi SE 17.3 mph - N/A   Overcast
2:53 PM 64.9 °F 53.1 °F 65% 29.91 in 10.0 mi SE 16.1 mph 24.2 mph N/A   Overcast
3:06 PM 64.4 °F 51.8 °F 64% 29.93 in 10.0 mi SE 16.1 mph 25.3 mph N/A   Overcast
3:25 PM 66.2 °F 53.6 °F 64% 29.92 in 10.0 mi ESE 18.4 mph 26.5 mph N/A   Overcast
3:33 PM 66.2 °F 53.6 °F 64% 29.92 in 10.0 mi ESE 15.0 mph - N/A   Overcast
3:53 PM 68.0 °F 53.1 °F 59% 29.88 in 10.0 mi ESE 17.3 mph 20.7 mph N/A   Mostly Cloudy
4:53 PM 66.0 °F 53.1 °F 63% 29.85 in 10.0 mi ESE 18.4 mph 25.3 mph N/A   Mostly Cloudy
5:53 PM 69.1 °F 53.1 °F 57% 29.84 in 10.0 mi ESE 13.8 mph 25.3 mph N/A   Scattered Clouds
6:53 PM 68.0 °F 53.1 °F 59% 29.83 in 10.0 mi ESE 20.7 mph 27.6 mph N/A   Overcast
7:53 PM 64.0 °F 53.1 °F 67% 29.84 in 10.0 mi ESE 13.8 mph - N/A   Scattered Clouds
8:53 PM 59.0 °F 53.1 °F 81% 29.87 in 10.0 mi East 11.5 mph - N/A   Partly Cloudy
9:53 PM 57.0 °F 52.0 °F 83% 29.88 in 10.0 mi East 6.9 mph - N/A   Clear
10:53 PM 54.0 °F 52.0 °F 93% 29.90 in 9.0 mi NE 6.9 mph - N/A   Clear
11:53 PM 54.0 °F 52.0 °F 93% 29.90 in 9.0 mi ENE 5.8 mph - N/A   Clear